Tracking 30703 objects as of 13-Jun-2025
HD Live streaming from Space Station
objects crossing your sky now

GOES 2

Track GOES 2 now!
GOES 2 is classified as:


NORAD ID: 10061
Int'l Code: 1977-048A
Perigee: 35,991.4 km
Apogee: 36,091.0 km
Inclination: 7.3 °
Period: 1,448.8 minutes
Semi major axis: 42412 km
RCS: 2.5118 m2 (large)
Launch date: June 16, 1977
Source: United States (US)
Launch site: AIR FORCE EASTERN TEST RANGE (AFETR)
Your satellite tracking list
Your tracking list is empty




NASA's NSSDC Master Catalog

Two Line Element Set (TLE):
1 10061U 77048A   25163.46988924  .00000115  00000-0  00000+0 0  9997
2 10061   7.2983 296.4446 0011750  49.8867 313.0156  0.99395477119845
Source of the keplerian elements: AFSPC